When you browse on this site, cookies collect data to enhance your experience and personalize the content and advertising you see.
Visit our Privacy Policy to learn more. By continuing to use the site, you agree to this use of cookies and data.
  • In Hungary
  • List of Countries
  • For 7 days
  • Water Temperature
  • Weather Map
  • News
  • Weather Widgets
  • user-avatar
    Login

    Hourly Weather Karna

    Today, 7 December, Saturday

    Time Temperature Precipitation Wind Pressure Humidity
    00:00 +2°C° 0.1 mm 7 mps 750 mmHg 67%
    01:00 +2°C° 0 mm 7 mps 749 mmHg 75%
    02:00 +3°C° 0.4 mm 7 mps 748 mmHg 78%
    03:00 +3°C° 0.4 mm 7 mps 748 mmHg 82%
    04:00 +3°C° 0.4 mm 7 mps 747 mmHg 85%
    05:00 +4°C° 0.5 mm 7 mps 747 mmHg 84%
    06:00 +4°C° 0.5 mm 7 mps 747 mmHg 83%
    07:00 +5°C° 0.5 mm 7 mps 747 mmHg 83%
    08:00 +5°C° 0.3 mm 7 mps 747 mmHg 83%
    09:00 +5°C° 0.3 mm 8 mps 747 mmHg 83%
    10:00 +6°C° 0.3 mm 8 mps 747 mmHg 84%
    11:00 +6°C° 0.3 mm 8 mps 748 mmHg 83%
    12:00 +6°C° 0.3 mm 8 mps 748 mmHg 83%
    13:00 +6°C° 0.3 mm 8 mps 749 mmHg 82%
    14:00 +6°C° 0.3 mm 8 mps 749 mmHg 82%
    15:00 +6°C° 0.3 mm 7 mps 749 mmHg 82%
    16:00 +6°C° 0.3 mm 7 mps 750 mmHg 82%
    17:00 +6°C° 0.1 mm 7 mps 750 mmHg 81%
    18:00 +6°C° 0.1 mm 7 mps 751 mmHg 81%
    19:00 +6°C° 0.1 mm 7 mps 751 mmHg 81%
    20:00 +6°C° 0.1 mm 7 mps 751 mmHg 81%
    21:00 +7°C° 0.1 mm 6 mps 752 mmHg 82%
    22:00 +7°C° 0.1 mm 6 mps 752 mmHg 83%
    23:00 +7°C° 0.1 mm 6 mps 752 mmHg 83%

    Tomorrow, 8 December, Sunday

    Time Temperature Precipitation Wind Pressure Humidity
    00:00 +5°C° 0.1 mm 6 mps 752 mmHg 82%
    01:00 +5°C° 0.1 mm 6 mps 752 mmHg 82%
    02:00 +5°C° 0 mm 6 mps 752 mmHg 82%
    03:00 +5°C° 0 mm 6 mps 752 mmHg 81%
    04:00 +5°C° 0 mm 6 mps 751 mmHg 81%
    05:00 +6°C° 0 mm 5 mps 751 mmHg 83%
    06:00 +5°C° 0 mm 5 mps 751 mmHg 84%
    07:00 +5°C° 0 mm 4 mps 751 mmHg 86%
    08:00 +5°C° 0 mm 5 mps 751 mmHg 83%
    09:00 +4°C° 0 mm 6 mps 750 mmHg 80%
    10:00 +5°C° 0 mm 6 mps 750 mmHg 78%
    11:00 +5°C° 0 mm 7 mps 749 mmHg 75%
    12:00 +6°C° 0 mm 7 mps 748 mmHg 73%
    13:00 +8°C° 0 mm 7 mps 747 mmHg 70%
    14:00 +8°C° 0.1 mm 7 mps 746 mmHg 72%
    15:00 +8°C° 0.1 mm 7 mps 746 mmHg 74%
    16:00 +8°C° 0.1 mm 7 mps 745 mmHg 76%
    17:00 +8°C° 0.3 mm 6 mps 745 mmHg 77%
    18:00 +8°C° 0.3 mm 6 mps 745 mmHg 79%
    19:00 +8°C° 0.3 mm 6 mps 745 mmHg 80%
    20:00 +8°C° 0.1 mm 5 mps 744 mmHg 82%
    21:00 +8°C° 0.1 mm 5 mps 744 mmHg 83%
    22:00 +8°C° 0.1 mm 4 mps 744 mmHg 85%
    23:00 +8°C° 0.5 mm 4 mps 743 mmHg 86%

    Day after tomorrow, 9 December, Monday

    Time Temperature Precipitation Wind Pressure Humidity
    00:00 +8°C° 0.5 mm 4 mps 743 mmHg 88%
    01:00 +8°C° 0.5 mm 4 mps 743 mmHg 89%
    02:00 +7°C° 0.1 mm 4 mps 743 mmHg 86%
    03:00 +7°C° 0.1 mm 5 mps 742 mmHg 83%
    04:00 +6°C° 0.1 mm 5 mps 742 mmHg 79%
    05:00 +6°C° 0 mm 5 mps 742 mmHg 78%
    06:00 +6°C° 0 mm 5 mps 742 mmHg 76%
    07:00 +4°C° 0 mm 6 mps 742 mmHg 75%
    08:00 +5°C° 0 mm 6 mps 743 mmHg 73%
    09:00 +5°C° 0 mm 6 mps 743 mmHg 71%
    10:00 +5°C° 0 mm 6 mps 743 mmHg 69%
    11:00 +5°C° 0 mm 6 mps 742 mmHg 66%
    12:00 +7°C° 0 mm 6 mps 742 mmHg 63%
    13:00 +8°C° 0 mm 6 mps 741 mmHg 59%
    14:00 +7°C° 0 mm 6 mps 741 mmHg 63%
    15:00 +7°C° 0 mm 6 mps 741 mmHg 67%
    16:00 +5°C° 0 mm 6 mps 741 mmHg 71%
    17:00 +5°C° 0.1 mm 6 mps 741 mmHg 74%
    18:00 +5°C° 0.1 mm 6 mps 741 mmHg 77%
    19:00 +4°C° 0.1 mm 6 mps 741 mmHg 79%
    20:00 +4°C° 0.3 mm 6 mps 742 mmHg 80%
    21:00 +4°C° 0.3 mm 6 mps 742 mmHg 81%
    22:00 +4°C° 0.3 mm 6 mps 743 mmHg 82%
    23:00 +4°C° 0 mm 6 mps 743 mmHg 82%

    10 December, Tuesday

    Time Temperature Precipitation Wind Pressure Humidity
    00:00 +4°C° 0 mm 6 mps 744 mmHg 81%
    01:00 +4°C° 0 mm 7 mps 745 mmHg 81%
    02:00 +4°C° 0 mm 7 mps 745 mmHg 79%
    03:00 +4°C° 0 mm 7 mps 746 mmHg 78%
    04:00 +4°C° 0 mm 7 mps 747 mmHg 76%
    05:00 +3°C° 0 mm 7 mps 748 mmHg 73%
    06:00 +2°C° 0 mm 7 mps 749 mmHg 70%
    07:00 0°C° 0 mm 7 mps 750 mmHg 66%
    08:00 +1°C° 0 mm 6 mps 751 mmHg 72%
    09:00 +1°C° 0 mm 6 mps 752 mmHg 77%
    10:00 +1°C° 0 mm 6 mps 753 mmHg 82%
    11:00 +2°C° 0.1 mm 6 mps 754 mmHg 84%
    12:00 +2°C° 0.1 mm 7 mps 755 mmHg 86%
    13:00 +2°C° 0.1 mm 7 mps 756 mmHg 89%
    14:00 +2°C° 0.1 mm 6 mps 757 mmHg 82%
    15:00 +1°C° 0.1 mm 4 mps 758 mmHg 75%
    16:00 +2°C° 0.1 mm 3 mps 759 mmHg 67%
    17:00 +1°C° 0 mm 3 mps 760 mmHg 69%
    18:00 +1°C° 0 mm 2 mps 761 mmHg 71%
    19:00 +1°C° 0 mm 2 mps 761 mmHg 73%
    20:00 -1°C° 0 mm 2 mps 761 mmHg 73%
    21:00 -1°C° 0 mm 2 mps 762 mmHg 72%
    22:00 +1°C° 0 mm 1 mps 762 mmHg 72%
    23:00 -1°C° 0 mm 2 mps 762 mmHg 72%

    11 December, Wednesday

    Time Temperature Precipitation Wind Pressure Humidity
    00:00 -1°C° 0 mm 2 mps 762 mmHg 73%
    01:00 -1°C° 0 mm 2 mps 761 mmHg 73%
    02:00 -1°C° 0 mm 3 mps 761 mmHg 73%
    03:00 -1°C° 0 mm 3 mps 760 mmHg 72%
    04:00 -2°C° 0 mm 4 mps 760 mmHg 72%
    05:00 -2°C° 0 mm 4 mps 759 mmHg 70%
    06:00 -2°C° 0 mm 4 mps 759 mmHg 67%
    07:00 -2°C° 0 mm 5 mps 758 mmHg 65%
    08:00 -2°C° 0 mm 5 mps 758 mmHg 63%
    09:00 -1°C° 0 mm 5 mps 758 mmHg 61%
    10:00 -1°C° 0 mm 5 mps 758 mmHg 59%
    11:00 0°C° 0 mm 5 mps 757 mmHg 57%
    12:00 0°C° 0 mm 4 mps 756 mmHg 55%
    13:00 +1°C° 0 mm 4 mps 756 mmHg 52%
    14:00 0°C° 0 mm 4 mps 756 mmHg 54%
    15:00 +1°C° 0 mm 3 mps 755 mmHg 55%
    16:00 +1°C° 0 mm 3 mps 755 mmHg 56%
    17:00 +1°C° 0 mm 3 mps 755 mmHg 56%
    18:00 +1°C° 0 mm 3 mps 755 mmHg 56%
    19:00 +1°C° 0 mm 3 mps 754 mmHg 56%
    20:00 +1°C° 0 mm 2 mps 754 mmHg 59%
    21:00 +1°C° 0 mm 2 mps 754 mmHg 61%
    22:00 +1°C° 0 mm 2 mps 754 mmHg 64%
    23:00 +1°C° 0 mm 2 mps 754 mmHg 67%

    12 December, Thursday

    Time Temperature Precipitation Wind Pressure Humidity
    00:00 +1°C° 0 mm 2 mps 753 mmHg 70%
    01:00 +1°C° 0 mm 2 mps 753 mmHg 72%
    02:00 +1°C° 0.1 mm 2 mps 753 mmHg 76%
    03:00 0°C° 0.1 mm 3 mps 752 mmHg 80%
    04:00 0°C° 0.1 mm 3 mps 752 mmHg 84%
    05:00 0°C° 0.2 mm 3 mps 752 mmHg 88%
    06:00 0°C° 0.2 mm 3 mps 752 mmHg 92%
    07:00 0°C° 0.2 mm 3 mps 752 mmHg 96%
    08:00 +1°C° 0.1 mm 3 mps 752 mmHg 96%
    09:00 +1°C° 0.1 mm 3 mps 752 mmHg 96%
    10:00 +1°C° 0.1 mm 3 mps 752 mmHg 96%
    11:00 +1°C° 0 mm 4 mps 752 mmHg 92%
    12:00 +1°C° 0 mm 4 mps 752 mmHg 88%
    13:00 +3°C° 0 mm 4 mps 751 mmHg 84%
    14:00 +1°C° 0 mm 4 mps 751 mmHg 85%
    15:00 +2°C° 0 mm 3 mps 751 mmHg 87%
    16:00 +1°C° 0 mm 3 mps 751 mmHg 89%
    17:00 +1°C° 0 mm 3 mps 751 mmHg 89%
    18:00 0°C° 0 mm 3 mps 750 mmHg 90%
    19:00 0°C° 0 mm 3 mps 750 mmHg 90%
    20:00 0°C° 0 mm 3 mps 750 mmHg 90%
    21:00 0°C° 0 mm 3 mps 749 mmHg 90%
    22:00 -1°C° 0 mm 3 mps 748 mmHg 90%
    23:00 -2°C° 0 mm 4 mps 747 mmHg 88%
    Show more